Location: Berg
(47.2344°N, 9.5296°E)
Time: 08:48:49
(UTC+00:00)

Cosmos 2344 - Visible Passes

Search period start: 09 May 2021 00:00
Search period end: 19 May 2021 00:00
Orbit: 1241 x 3001 km, 63.3° (Epoch: 08 May)

Date Brightness Start Highest point End Pass type
(mag) Time Alt. Az. Time Alt. Az. Time Alt. Az.
09 May 4.3 00:01:47 10° NW 00:11:03 89° SW 00:24:05 10° SE visible
09 May 5.2 02:17:05 10° WNW 02:25:13 28° WSW 02:35:32 10° SSW visible
09 May 5.6 19:20:50 10° WNW 19:27:19 28° N 19:34:58 10° NE visible
09 May 5.2 21:37:07 10° NW 21:44:55 38° NNE 21:55:04 10° E visible
09 May 4.3 23:51:27 10° NW 00:00:43 89° SW 00:13:46 10° SE visible
10 May 5.2 02:06:46 10° WNW 02:14:53 28° WSW 02:25:10 10° SSW visible
10 May 5.5 19:10:31 10° WNW 19:17:00 28° N 19:24:39 10° NE visible
10 May 5.2 21:26:47 10° NW 21:34:35 38° NNE 21:44:45 10° E visible
10 May 4.3 23:41:08 10° NW 23:50:23 88° SW 00:03:20 10° SE visible
11 May 5.2 01:56:26 10° WNW 02:04:33 28° WSW 02:13:04 14° SSW visible
11 May 5.2 21:16:27 10° NW 21:24:15 38° NNE 21:34:25 10° E visible
11 May 4.3 23:30:47 10° NW 23:40:03 88° SW 23:51:08 16° SE visible
12 May 5.3 01:46:07 10° WNW 01:54:13 27° WSW 02:00:58 18° SSW visible
12 May 5.2 21:06:07 10° NW 21:13:56 38° NNE 21:24:06 10° E visible
12 May 4.3 23:20:27 10° NW 23:29:44 88° SW 23:39:42 19° SE visible
13 May 5.3 01:35:47 10° WNW 01:43:53 27° WSW 01:49:35 20° SW visible
13 May 5.2 20:55:47 10° NW 21:03:36 38° NNE 21:13:46 10° E visible
13 May 4.3 23:10:07 10° NW 23:19:23 88° SW 23:28:39 22° SE visible
14 May 5.3 01:25:27 10° WNW 01:33:33 27° WSW 01:38:34 21° SW visible
14 May 5.2 20:45:27 10° NW 20:53:16 38° NNE 21:03:27 10° E visible
14 May 4.3 22:59:47 10° NW 23:09:04 88° SW 23:17:49 24° SE visible
15 May 5.3 01:15:08 10° WNW 01:23:13 27° WSW 01:27:46 22° SW visible
15 May 5.1 20:35:07 10° NW 20:42:56 38° NNE 20:53:07 10° E visible
15 May 4.3 22:49:27 10° NW 22:58:43 88° SW 23:07:10 25° SE visible
16 May 5.3 01:04:48 10° WNW 01:12:52 27° WSW 01:17:07 23° SW visible
16 May 5.1 20:24:47 10° NW 20:32:36 38° NNE 20:42:48 10° E visible
16 May 4.3 22:39:07 10° NW 22:48:23 88° SW 22:56:38 26° SE visible
17 May 5.3 00:54:29 10° WNW 01:02:32 27° WSW 01:06:36 23° SW visible
17 May 5.1 20:14:27 10° NW 20:22:17 38° NNE 20:32:28 10° E visible
17 May 4.3 22:28:48 10° NW 22:38:04 88° SW 22:46:12 26° SE visible
18 May 5.4 00:44:09 10° WNW 00:52:12 27° WSW 00:56:10 23° SW visible
18 May 5.1 20:04:07 10° NW 20:11:57 38° NNE 20:22:09 10° E visible
18 May 4.3 22:18:27 10° NW 22:27:43 87° SW 22:35:51 26° SE visible
